Time,TemperatureF,DewpointF,PressureIn,WindDirection,WindDirectionDegrees,WindSpeedMPH,WindSpeedGustMPH,Humidity,HourlyPrecipIn,Conditions,Clouds,dailyrainin,SoftwareType,DateUTC
2013-08-15 00:03:00,59.0,58.0,29.21,North,0,0.0,0.0,95,0.00,,,0.00,,2013-08-15 04:03:00,
2013-08-15 00:12:00,59.0,58.0,29.21,North,0,0.0,0.0,95,0.00,,,0.00,,2013-08-15 04:12:00,
2013-08-15 00:43:00,59.0,58.0,29.21,North,0,0.0,0.0,97,0.00,,,0.00,,2013-08-15 04:43:00,
2013-08-15 00:52:00,59.0,58.0,29.21,North,0,0.0,0.0,97,0.00,,,0.00,,2013-08-15 04:52:00,
2013-08-15 01:12:00,59.0,58.0,29.21,North,0,0.0,0.0,97,0.00,,,0.00,,2013-08-15 05:12:00,
2013-08-15 01:22:00,60.0,59.0,29.21,North,0,0.0,0.0,97,0.00,,,0.00,,2013-08-15 05:22:00,
2013-08-15 01:32:00,60.0,59.0,29.21,North,0,0.0,0.0,97,0.00,,,0.00,,2013-08-15 05:32:00,
2013-08-15 01:42:00,60.0,59.0,29.21,North,0,0.0,0.0,97,0.00,,,0.00,,2013-08-15 05:42:00,
2013-08-15 01:52:00,60.0,59.0,29.21,North,0,0.0,0.0,97,0.00,,,0.00,,2013-08-15 05:52:00,
2013-08-15 02:11:00,60.0,59.0,29.21,North,0,0.0,0.0,95,0.00,,,0.00,,2013-08-15 06:11:00,
2013-08-15 02:21:00,60.0,59.0,29.21,North,0,0.0,0.0,95,0.00,,,0.00,,2013-08-15 06:21:00,
2013-08-15 02:42:00,61.0,59.0,29.21,North,0,0.0,0.0,94,0.00,,,0.00,,2013-08-15 06:42:00,
2013-08-15 02:52:00,61.0,59.0,29.21,North,0,0.0,0.0,94,0.00,,,0.00,,2013-08-15 06:52:00,
2013-08-15 03:11:00,61.0,59.0,29.21,North,0,0.0,0.0,92,0.00,,,0.00,,2013-08-15 07:11:00,
2013-08-15 03:21:00,61.0,59.0,29.21,North,0,0.0,0.0,92,0.00,,,0.00,,2013-08-15 07:21:00,
2013-08-15 03:42:00,61.0,58.0,29.21,North,0,0.0,0.0,91,0.00,,,0.00,,2013-08-15 07:42:00,
2013-08-15 03:52:00,61.0,59.0,29.21,North,0,0.0,0.0,92,0.00,,,0.00,,2013-08-15 07:52:00,
2013-08-15 04:11:00,61.0,59.0,29.21,North,0,0.0,0.0,92,0.00,,,0.00,,2013-08-15 08:11:00,
2013-08-15 04:21:00,61.0,59.0,29.21,North,0,0.0,0.0,93,0.00,,,0.00,,2013-08-15 08:21:00,
2013-08-15 04:42:00,61.0,59.0,29.21,North,0,0.0,0.0,93,0.00,,,0.00,,2013-08-15 08:42:00,
2013-08-15 04:52:00,61.0,59.0,29.21,North,0,0.0,0.0,93,0.00,,,0.00,,2013-08-15 08:52:00,
2013-08-15 05:11:00,61.0,58.0,29.21,North,0,0.0,0.0,91,0.00,,,0.00,,2013-08-15 09:11:00,
2013-08-15 05:21:00,60.0,57.0,29.21,North,0,0.0,0.0,89,0.00,,,0.00,,2013-08-15 09:21:00,
2013-08-15 05:42:00,59.0,56.0,29.21,North,0,0.0,0.0,90,0.00,,,0.00,,2013-08-15 09:42:00,
2013-08-15 05:53:00,58.0,56.0,29.21,North,0,0.0,0.0,94,0.00,,,0.00,,2013-08-15 09:53:00,
2013-08-15 06:03:00,58.0,56.0,29.21,North,0,0.0,0.0,94,0.00,,,0.00,,2013-08-15 10:03:00,
2013-08-15 06:12:00,58.0,56.0,29.21,North,0,0.0,0.0,94,0.00,,,0.00,,2013-08-15 10:12:00,
2013-08-15 06:22:00,58.0,57.0,29.21,North,0,0.0,0.0,95,0.00,,,0.00,,2013-08-15 10:22:00,
2013-08-15 06:42:00,58.0,57.0,29.21,North,0,0.0,0.0,96,0.00,,,0.00,,2013-08-15 10:42:00,
2013-08-15 06:52:00,58.0,57.0,29.21,North,0,0.0,0.0,96,0.00,,,0.00,,2013-08-15 10:52:00,
2013-08-15 07:02:00,58.0,57.0,29.21,North,0,0.0,0.0,96,0.00,,,0.00,,2013-08-15 11:02:00,
2013-08-15 07:12:00,58.0,57.0,29.21,North,0,0.0,0.0,96,0.00,,,0.00,,2013-08-15 11:12:00,
2013-08-15 07:22:00,58.0,57.0,29.21,North,0,0.0,0.0,96,0.00,,,0.00,,2013-08-15 11:22:00,
2013-08-15 07:52:00,57.0,56.0,29.23,North,0,0.0,0.0,97,0.00,,,0.00,,2013-08-15 11:52:00,
2013-08-15 08:11:00,57.0,56.0,29.23,North,0,0.0,0.0,97,0.00,,,0.00,,2013-08-15 12:11:00,
2013-08-15 08:21:00,58.0,57.0,29.23,North,0,0.0,0.0,97,0.00,,,0.00,,2013-08-15 12:21:00,
2013-08-15 08:31:00,58.0,57.0,29.23,North,0,0.0,0.0,97,0.00,,,0.00,,2013-08-15 12:31:00,
2013-08-15 08:42:00,58.0,57.0,29.23,North,0,0.0,0.0,97,0.00,,,0.00,,2013-08-15 12:42:00,
2013-08-15 08:52:00,61.0,58.0,29.23,North,0,0.0,0.0,91,0.00,,,0.00,,2013-08-15 12:52:00,
2013-08-15 09:11:00,61.0,58.0,29.23,North,0,0.0,0.0,91,0.00,,,0.00,,2013-08-15 13:11:00,
2013-08-15 09:21:00,65.0,57.0,29.23,North,0,0.0,0.0,76,0.00,,,0.00,,2013-08-15 13:21:00,
2013-08-15 09:42:00,66.0,56.0,29.23,North,0,0.0,0.0,71,0.00,,,0.00,,2013-08-15 13:42:00,
2013-08-15 09:52:00,69.0,57.0,29.23,North,0,0.0,0.0,66,0.00,,,0.00,,2013-08-15 13:52:00,
2013-08-15 11:43:00,76.0,58.0,29.23,North,0,0.0,0.0,53,0.00,,,0.00,,2013-08-15 15:43:00,
2013-08-15 12:16:00,75.0,53.0,29.23,WNW,291,5.0,7.0,46,0.00,,,0.00,,2013-08-15 16:16:00,
2013-08-15 12:17:00,78.0,54.0,29.23,North,350,3.0,8.0,44,0.00,,,0.00,,2013-08-15 16:17:00,
2013-08-15 12:26:00,77.0,55.0,29.23,North,0,0.0,4.0,46,0.00,,,0.00,,2013-08-15 16:26:00,
2013-08-15 12:44:00,78.0,54.0,29.23,North,350,3.0,8.0,44,0.00,,,0.00,,2013-08-15 16:44:00,
2013-08-15 12:55:00,78.0,54.0,29.23,North,350,3.0,8.0,44,0.00,,,0.00,,2013-08-15 16:55:00,
2013-08-15 13:06:00,78.0,54.0,29.23,North,350,3.0,8.0,44,0.00,,,0.00,,2013-08-15 17:06:00,
2013-08-15 13:31:00,80.0,-99.9,29.21,NE,48,4.0,7.0,49,0.00,,,0.00,,2013-08-15 17:31:00,
2013-08-15 13:55:00,80.0,54.0,29.21,NNW,339,4.0,6.0,41,0.00,,,0.00,,2013-08-15 17:55:00,
2013-08-15 14:00:00,-999.0,-99.9,29.21,NNW,339,4.0,6.0,-999,-99.99,,,-99.99,,2013-08-15 18:00:00,
2013-08-15 14:28:00,81.0,58.0,29.21,North,0,0.0,5.0,46,0.00,,,0.00,,2013-08-15 18:28:00,
2013-08-15 14:36:00,-999.0,-99.9,29.21,North,0,0.0,5.0,-999,0.00,,,0.00,,2013-08-15 18:36:00,
2013-08-15 14:49:00,79.0,55.0,29.21,WNW,287,4.0,6.0,44,0.00,,,0.00,,2013-08-15 18:49:00,
2013-08-15 15:07:00,-999.0,-99.9,29.21,WNW,301,4.0,5.0,-999,0.00,,,0.00,,2013-08-15 19:07:00,
2013-08-15 15:17:00,80.0,56.0,29.21,WNW,289,3.0,5.0,44,0.00,,,0.00,,2013-08-15 19:17:00,
2013-08-15 15:34:00,-999.0,-99.9,29.21,North,0,0.0,4.0,-999,-99.99,,,-99.99,,2013-08-15 19:34:00,
2013-08-15 15:49:00,79.0,61.0,29.21,North,0,0.0,0.0,55,0.00,,,0.00,,2013-08-15 19:49:00,
2013-08-15 16:33:00,78.0,62.0,29.18,North,0,0.0,4.0,57,0.00,,,0.00,,2013-08-15 20:33:00,
2013-08-15 17:06:00,81.0,62.0,29.18,ENE,60,4.0,6.0,52,0.00,,,0.00,,2013-08-15 21:06:00,
2013-08-15 17:17:00,81.0,62.0,29.18,ENE,60,4.0,6.0,52,0.00,,,0.00,,2013-08-15 21:17:00,
2013-08-15 17:40:00,81.0,61.0,29.18,North,0,0.0,6.0,50,0.00,,,0.00,,2013-08-15 21:40:00,
2013-08-15 17:57:00,79.0,61.0,29.18,North,0,0.0,4.0,55,0.00,,,0.00,,2013-08-15 21:57:00,
2013-08-15 18:17:00,79.0,60.0,29.18,ENE,61,3.0,4.0,53,0.00,,,0.00,,2013-08-15 22:17:00,
2013-08-15 18:29:00,79.0,60.0,29.18,ENE,61,3.0,4.0,53,0.00,,,0.00,,2013-08-15 22:29:00,
2013-08-15 18:58:00,77.0,61.0,29.18,North,0,0.0,4.0,57,0.00,,,0.00,,2013-08-15 22:58:00,
2013-08-15 19:16:00,76.0,62.0,29.18,North,0,0.0,6.0,63,0.00,,,0.00,,2013-08-15 23:16:00,
2013-08-15 19:35:00,-999.0,-99.9,29.18,ENE,66,3.0,4.0,69,0.00,,,0.00,,2013-08-15 23:35:00,
2013-08-15 19:55:00,72.0,64.0,29.18,North,0,0.0,0.0,77,0.00,,,0.00,,2013-08-15 23:55:00,
2013-08-15 20:12:00,72.0,65.0,29.18,North,0,0.0,3.0,78,0.00,,,0.00,,2013-08-16 00:12:00,
2013-08-15 20:24:00,72.0,61.0,29.18,ENE,66,4.0,8.0,68,0.00,,,0.00,,2013-08-16 00:24:00,
2013-08-15 20:46:00,72.0,61.0,29.18,ENE,66,4.0,8.0,68,0.00,,,0.00,,2013-08-16 00:46:00,
2013-08-15 20:52:00,70.0,60.0,29.21,North,0,0.0,0.0,71,0.00,,,0.00,,2013-08-16 00:52:00,
2013-08-15 21:21:00,69.0,60.0,29.21,NNE,26,3.0,5.0,73,0.00,,,0.00,,2013-08-16 01:21:00,
2013-08-15 21:26:00,69.0,60.0,29.21,NE,41,4.0,5.0,72,0.00,,,0.00,,2013-08-16 01:26:00,
2013-08-15 21:43:00,-999.0,-99.9,29.21,North,0,0.0,-999.0,-999,-99.99,,,-99.99,,2013-08-16 01:43:00,
2013-08-15 21:54:00,68.0,59.0,29.21,North,0,0.0,0.0,73,0.00,,,0.00,,2013-08-16 01:54:00,
2013-08-15 22:12:00,67.0,60.0,29.21,North,0,0.0,4.0,79,0.00,,,0.00,,2013-08-16 02:12:00,
2013-08-15 22:22:00,67.0,62.0,29.23,North,0,0.0,0.0,84,0.00,,,0.00,,2013-08-16 02:22:00,
2013-08-15 22:43:00,66.0,61.0,29.23,North,0,0.0,0.0,85,0.00,,,0.00,,2013-08-16 02:43:00,
2013-08-15 22:52:00,65.0,61.0,29.23,North,0,0.0,0.0,88,0.00,,,0.00,,2013-08-16 02:52:00,
2013-08-15 23:11:00,64.0,61.0,29.23,North,0,0.0,0.0,90,0.00,,,0.00,,2013-08-16 03:11:00,
2013-08-15 23:22:00,64.0,62.0,29.23,North,0,0.0,0.0,92,0.00,,,0.00,,2013-08-16 03:22:00,
2013-08-15 23:43:00,64.0,62.0,29.23,North,0,0.0,0.0,93,0.00,,,0.00,,2013-08-16 03:43:00,
2013-08-15 23:53:00,64.0,62.0,29.23,North,0,0.0,0.0,94,0.00,,,0.00,,2013-08-16 03:53:00,